LA_ROCHELLE current weather conditions

sailwx.info

Wind from 280 at 5 knots

Air temperature 7.0° C
Visibility: greater than 5.4 NM
Dewpoint 4.0° C

Last reported at 2017-Dec-17 02:00 UTC.
Time now 2017-Dec-17 02:40 UTC

Location: N 46°11' W 001°12'.
View on Google Maps.

See reports from other nearby stations

  
Tides and Currents Weather Stations Pressure Air Temp Water Temp Dewpoint Dewpoint Depression Visibility Wind Speed Wind Dir Waves Ship Positions
date/time (UTC)wind fromknots sea level pressurealtimeterstation pressurevisibilityair tempwater tempwave heightnotes
2017-Dec-17 02:00 280 5 5.4 7.0
2017-Dec-17 01:30 290 6 5.4 7.0
2017-Dec-17 01:00 300 6 5.4 7.0
2017-Dec-17 00:30 310 7 5.4 7.0
2017-Dec-17 00:00 300 6 5.4 6.0
2017-Dec-16 23:30 320 5 5.4 6.0
2017-Dec-16 23:00 340 4 5.4 6.0
2017-Dec-16 22:30 340 8 5.4 6.0
2017-Dec-16 22:00 330 6 5.4 6.0
2017-Dec-16 21:30 320 7 5.4 7.0
2017-Dec-16 21:00 320 6 5.4 6.0
2017-Dec-16 20:30 330 7 5.4 6.0
2017-Dec-16 20:00 340 8 5.4 7.0
2017-Dec-16 19:30 330 9 5.4 7.0
2017-Dec-16 19:00 330 13 5.4 7.0
2017-Dec-16 18:30 330 11 5.4 7.0
2017-Dec-16 18:00 330 9 5.4 7.0
2017-Dec-16 17:30 330 7 5.4 7.0
2017-Dec-16 17:00 330 9 5.4 7.0
2017-Dec-16 16:30 320 6 5.4 7.0
2017-Dec-16 16:00 320 6 5.4 7.0
2017-Dec-16 15:30 330 6 5.4 8.0
2017-Dec-16 15:00 340 6 5.4 9.0
2017-Dec-16 14:30 340 8 5.4 9.0
2017-Dec-16 14:00 350 8 5.4 9.0
2017-Dec-16 13:30 340 7 5.4 9.0
2017-Dec-16 13:00 340 8 5.4 9.0
2017-Dec-16 12:30 340 7 5.4 8.0
2017-Dec-16 12:00 340 8 5.4 8.0
2017-Dec-16 11:30 350 7 5.4 8.0
2017-Dec-16 11:00 350 8 5.4 7.0
2017-Dec-16 10:30 360 8 5.4 7.0
2017-Dec-16 10:00 360 8 5.4 7.0
2017-Dec-16 09:30 350 6 5.4 6.0
2017-Dec-16 09:00 360 6 5.4 6.0
2017-Dec-16 08:30 350 7 5.4 5.0
2017-Dec-16 08:00 360 5 5.4 5.0
2017-Dec-16 07:30 350 8 5.4 5.0
2017-Dec-16 07:00 350 6 5.4 6.0
2017-Dec-16 06:30 350 6 5.4 6.0
2017-Dec-16 06:00 360 7 5.4 5.0
2017-Dec-16 05:30 350 8 5.4 5.0
2017-Dec-16 05:00 350 8 5.4 6.0
2017-Dec-16 04:30 350 8 5.4 5.0
2017-Dec-16 04:00 340 9 5.4 6.0
2017-Dec-16 03:30 340 9 5.4 6.0
2017-Dec-16 03:00 340 13 5.4 6.0
2017-Dec-16 02:30 330 12 5.4 6.0
2017-Dec-16 02:00 330 11 5.4 6.0
2017-Dec-16 01:30 340 9 5.4 5.0
2017-Dec-16 01:00 340 11 5.4 6.0
2017-Dec-16 00:30 340 12 5.4 6.0
2017-Dec-16 00:00 340 12 5.4 6.0
2017-Dec-15 23:30 340 13 5.4 6.0
2017-Dec-15 23:00 340 13 5.4 6.0
2017-Dec-15 22:30 340 12 5.4 6.0
2017-Dec-15 22:00 340 12 5.4 6.0
2017-Dec-15 21:30 330 12 5.4 7.0
2017-Dec-15 21:00 340 12 5.4 7.0
2017-Dec-15 20:30 340 9 5.4 7.0
2017-Dec-15 20:00 330 12 5.4 7.0
2017-Dec-15 19:30 330 13 5.4 8.0
2017-Dec-15 19:00 330 13 5.4 7.0
2017-Dec-15 18:30 340 13 5.4 8.0
2017-Dec-15 18:00 330 14 5.4 8.0
2017-Dec-15 17:30 320 17 5.4 9.0
2017-Dec-15 17:00 310 15 5.4 9.0
2017-Dec-15 16:30 320 18 5.4 9.0
2017-Dec-15 16:00 320 15 5.4 9.0
2017-Dec-15 15:30 320 14 5.410.0
2017-Dec-15 15:00 320 17 5.410.0
2017-Dec-15 14:30 320 18 5.410.0
2017-Dec-15 14:00 310 20 5.410.0
2017-Dec-15 13:30 310 19 5.411.0
2017-Dec-15 13:00 310 17 5.410.0
2017-Dec-15 12:30 290 11 5.410.0
2017-Dec-15 12:00 300 9 5.4 9.0
2017-Dec-15 11:30 300 6 5.4 8.0
2017-Dec-15 11:00 310 6 5.4 7.0 Light rain.
2017-Dec-15 10:30 280 11 4.3 7.0 Light rain.
2017-Dec-15 10:00 290 14 5.4 8.0 Light rain.
2017-Dec-15 09:30 270 9 5.4 9.0
2017-Dec-15 09:00 270 11 5.4 9.0
2017-Dec-15 08:30 270 9 5.4 9.0
2017-Dec-15 08:00 270 8 5.4 8.0
2017-Dec-15 07:30 270 9 5.4 8.0
2017-Dec-15 07:00 290 13 5.4 8.0
2017-Dec-15 06:30 290 12 gusting 26 5.4 8.0
2017-Dec-15 06:00 300 13 5.4 9.0 Light rain.
2017-Dec-15 05:30 290 9 5.4 8.0
2017-Dec-15 05:00 290 6 5.4 7.0
2017-Dec-15 04:30 310 8 5.4 8.0
2017-Dec-15 04:00 290 17 5.4 8.0 Light rain.
2017-Dec-15 03:30 310 13 5.4 9.0
2017-Dec-15 03:00 300 15 5.4 9.0
2017-Dec-15 02:30 310 13 5.4 8.0
2017-Dec-15 02:00 310 20 5.4 9.0